Location: *
(45.9500°N, 9.0833°E)
Time: 00:44:28
(UTC+00:00)

Vanguard 2 Rocket - Pass Details

Date: 18 June 2021
Orbit: 555 x 3325 km, 32.9° (Epoch: 03 August)

Event Time Altitude Azimuth Distance (km) Brightness Sun altitude
Rises 18:33:45 0° 228° (SW) 7,276 11.8 5.6°
Reaches altitude 10° 18:39:08 10° 222° (SW) 6,276 11.4 4.7°
Maximum altitude 18:56:37 41° 162° (SSE) 3,751 9.7 2.1°
Drops below altitude 10° 19:09:25 10° 99° (E) 4,682 10.0 0.3°
Sets 19:12:43 0° 92° (E) 5,344 10.3 -0.2°
